Terminal Aerodrome Forecast
Issued by NWS

Home | Current Version | Previous Version | Text Only | Print | Product List | Glossary On
Versions: 1 2 3 4 5 6 7 8 9 10 11 12 13 14 15 16 17 18 19 20 21 22 23 24 25 26 27 28 29 30 31 32 33 34 35 36 37 38 39 40 41 42 43 44 45 46 47 48 49 50
000
FTUS45 KVEF 042320
TAFLAS
TAF
KLAS 042320Z 0500/0524 22014G22KT P6SM SCT100 BKN140
     FM050200 22010G16KT P6SM VCSH SCT090 BKN120
     FM050600 22011KT P6SM BKN120
     FM051400 24009KT P6SM SCT120 SCT250
     FM051800 24014G20KT P6SM FEW120 SCT250=

USA.gov is the U.S. government's official web portal to all federal, state and local government web resources and services.